Theta_e
324 322 320 319 318 314 310 306 305 303 298 294 293 292 291 291 292 295 295 307 313 318 319 322 321 322 322 323 324 324 323 320 320 319 321 324 322 325 325 325 325 326 328
320 320 318 317 315 313 310 306 304 301 297 293 292 292 291 291 291 294 295 299 313 317 320 321 322 322 324 323 324 325 323 320 319 317 317 320 322 322 321 321 320 321 323
321 319 318 315 315 312 309 305 301 298 294 292 291 291 291 291 291 292 296 298 303 311 317 319 320 323 324 324 326 328 323 320 318 316 315 319 319 319 318 316 316 317 320
322 318 316 314 314 311 309 305 300 297 294 291 289 289 289 290 291 291 293 296 300 302 307 313 315 318 322 324 327 327 323 318 318 315 315 318 319 318 315 316 316 316 316
321 319 315 314 312 310 308 306 299 298 293 290 290 288 288 288 289 291 290 292 297 299 299 304 308 307 312 320 326 324 323 321 317 314 316 315 314 314 314 314 314 314 315
316 316 314 312 310 309 304 302 300 295 294 291 291 289 287 288 288 288 289 291 293 293 295 296 297 297 306 314 320 323 323 322 318 315 315 314 314 314 314 314 312 313 314
311 311 311 310 308 308 305 302 297 295 293 291 288 287 287 287 287 288 288 288 289 290 290 293 293 294 297 308 315 320 322 323 319 316 315 313 313 313 313 312 312 312 312
298 303 305 305 304 303 301 299 296 294 293 291 290 285 285 286 286 287 287 288 287 288 288 289 289 291 293 295 301 313 322 322 320 317 315 313 313 313 312 312 312 312 312
292 294 295 300 301 301 300 298 296 295 294 291 290 291 286 282 282 285 285 286 286 286 286 287 288 289 290 293 299 305 313 319 320 318 316 313 312 311 312 312 312 312 312
289 290 291 292 293 297 297 297 297 294 293 292 290 290 289 288 285 284 284 284 285 286 285 286 287 287 288 290 296 300 304 310 316 319 315 313 311 311 311 311 311 311 311
286 286 287 288 288 289 290 293 294 294 293 292 291 290 288 288 286 285 285 283 284 285 286 286 286 286 287 288 291 295 302 307 312 314 314 311 310 310 310 310 311 311 311
284 284 285 285 286 286 287 288 289 291 292 292 292 290 289 288 287 286 285 285 284 284 284 284 285 287 287 287 292 296 300 305 312 311 311 309 308 308 309 309 310 310 310
281 282 283 283 283 284 284 285 285 286 287 288 290 291 292 290 289 288 287 288 285 283 282 282 285 286 287 287 289 294 297 303 309 309 308 307 306 306 306 308 309 309 309
280 281 281 281 281 282 282 282 282 282 283 283 284 285 288 290 291 289 288 286 286 288 284 283 282 284 286 286 289 293 292 299 305 308 306 305 305 305 304 305 307 308 308
281 280 279 279 280 280 280 280 280 279 280 281 282 283 283 285 286 288 290 288 287 284 285 288 282 283 285 286 288 289 290 294 300 305 306 305 304 303 303 304 305 306 307
278 279 278 278 279 279 280 280 279 279 279 279 280 281 281 282 284 284 285 287 287 286 284 285 287 283 284 286 287 288 288 292 296 301 303 303 302 301 301 302 303 304 305
278 279 279 279 278 278 278 278 278 278 278 278 279 278 280 281 282 282 282 283 284 285 283 286 287 284 282 283 284 286 287 288 289 296 300 301 301 301 300 300 301 302 303
278 278 279 278 278 278 278 277 277 277 277 277 278 279 279 281 279 280 281 281 282 284 283 282 285 285 282 283 283 283 285 287 286 291 297 299 300 300 300 300 300 301 301
277 277 278 277 277 277 277 277 277 277 277 277 278 278 278 279 279 280 280 281 281 283 284 283 283 284 282 281 282 283 283 284 285 288 293 297 298 299 299 299 299 299 299
276 275 275 275 275 276 276 276 276 276 277 277 278 278 278 278 278 279 280 280 281 281 282 282 282 282 283 282 281 281 280 282 282 283 287 290 294 295 298 298 297 296 297
274 273 273 273 273 274 275 275 275 275 276 276 277 278 278 278 281 281 280 280 280 280 281 281 281 281 282 278 280 282 282 283 282 284 282 283 286 289 291 296 294 294 296
271 271 271 270 270 272 274 276 275 274 274 274 274 275 276 277 278 280 281 282 282 280 280 280 280 280 281 282 282 282 281 281 279 282 282 281 284 285 288 290 294 295 296
269 268 268 268 268 268 272 274 274 272 271 271 271 272 273 274 275 276 278 280 280 282 283 281 280 281 281 283 283 282 282 283 282 281 282 281 282 282 286 287 292 294 295
266 266 266 266 266 267 271 272 273 271 270 270 270 270 271 271 272 273 273 273 274 275 276 278 279 280 282 284 285 285 284 284 284 285 282 280 282 280 283 285 290 293 294
264 264 265 264 263 264 269 271 271 269 269 268 269 270 270 270 273 275 273 271 272 273 277 279 280 282 284 286 287 285 283 282 281 281 280 281 282 281 281 282 284 291 293
264 264 264 263 263 262 267 269 270 268 267 268 269 270 272 272 274 275 273 271 269 271 273 273 275 277 279 280 284 285 284 282 281 281 283 280 280 278 276 280 282 283 287
Wind_Speed
5 4 3 3 3 3 3 3 3 2 2 3 3 3 3 3 3 2 2 7 6 7 8 8 7 6 6 5 6 6 6 3 2 2 4 6 2 4 4 6 6 7 9
4 5 4 4 3 4 3 4 4 4 3 1 4 4 4 3 3 4 3 3 7 8 9 9 8 8 8 7 8 8 6 3 2 2 4 6 2 4 2 4 6 6 6
5 5 4 4 5 4 4 3 2 2 3 2 4 3 3 4 4 5 4 3 4 6 6 6 9 9 8 9 12 12 7 6 5 4 3 7 5 3 3 4 4 5 5
4 4 4 4 4 4 5 4 2 2 3 3 2 3 3 3 4 5 4 4 4 4 5 6 5 8 11 13 9 9 8 6 6 3 5 6 3 1 2 2 2 2 3
3 2 3 3 4 3 3 4 2 2 3 2 3 4 4 4 5 3 5 5 5 5 4 7 7 7 8 9 14 12 10 10 5 4 5 3 3 1 0 4 3 3 5
6 4 2 1 2 2 2 3 3 2 1 2 2 3 4 4 4 5 5 4 5 6 5 6 5 5 8 8 10 11 16 11 9 8 8 8 8 7 7 5 6 7 5
12 8 5 5 3 1 2 3 2 3 1 1 2 3 3 6 6 5 4 5 6 6 6 5 4 4 4 10 10 13 14 13 10 12 10 10 10 9 9 9 8 7 7
15 12 10 7 6 4 5 2 1 1 1 3 2 1 5 5 3 5 4 5 6 4 5 6 6 6 5 4 7 12 17 16 14 13 13 12 12 12 11 11 10 10 8
14 14 13 10 9 5 4 2 2 2 3 0 3 1 2 4 3 3 3 3 4 4 5 5 6 6 6 5 8 10 14 16 17 17 15 14 12 12 13 11 11 11 10
13 12 11 11 11 8 9 6 3 2 1 4 1 5 2 0 3 7 3 3 4 7 6 5 6 6 6 5 8 11 13 15 14 16 17 15 14 13 13 14 13 12 12
12 13 12 11 10 7 7 9 9 7 3 3 3 2 3 3 2 3 10 5 3 4 5 6 6 6 7 6 5 8 15 16 16 13 16 16 16 15 15 15 14 14 14
8 12 11 10 9 9 9 7 6 7 6 4 4 3 3 4 2 4 5 6 8 5 4 4 6 8 7 6 9 12 15 16 15 14 16 17 17 16 16 16 16 15 15
6 9 9 9 7 7 8 8 7 7 6 5 6 6 5 4 3 4 5 10 7 4 4 4 6 7 7 6 8 13 15 17 16 14 15 17 18 17 17 18 18 17 17
4 5 6 7 8 7 7 7 4 4 6 4 7 6 6 6 4 4 6 6 12 11 5 6 3 6 6 7 11 15 9 18 20 19 19 19 19 19 20 20 20 19 18
5 6 6 7 8 8 7 7 4 5 5 5 5 5 4 5 4 5 6 5 7 10 13 6 4 5 5 5 10 9 11 16 23 22 21 21 21 21 22 22 22 21 20
4 5 5 5 6 6 6 7 7 7 6 5 6 6 5 4 5 4 4 5 6 9 13 2 6 5 4 5 7 9 11 17 21 24 23 22 23 23 23 23 23 22 21
6 7 8 9 9 9 7 6 5 7 8 9 8 6 8 6 6 5 4 4 6 6 12 11 6 5 4 6 6 7 9 10 10 23 25 24 23 23 23 24 24 24 23
6 7 7 8 9 10 10 10 11 10 11 11 10 10 11 7 7 6 5 7 7 8 8 15 12 8 7 7 6 7 8 8 9 17 27 26 25 25 24 24 25 24 23
6 6 7 7 10 10 10 10 10 12 12 11 12 11 12 10 11 8 7 8 7 7 8 9 11 7 6 3 6 6 6 8 7 16 23 27 27 27 26 25 25 24 23
6 7 8 9 9 10 10 11 11 12 12 13 14 13 14 12 12 11 10 10 10 9 9 9 10 10 8 5 4 4 5 5 7 7 15 17 21 25 27 27 26 25 24
8 8 11 10 10 10 9 12 13 15 15 16 15 15 14 15 22 21 12 12 12 10 9 10 11 9 9 4 8 5 9 6 9 9 8 10 10 11 15 26 23 26 26
9 10 10 11 12 10 21 24 21 15 16 16 16 15 15 16 19 26 27 28 23 14 15 14 13 13 14 8 7 9 8 6 8 8 8 10 10 13 13 13 24 26 29
10 10 11 11 12 12 22 25 26 15 16 15 16 15 15 12 17 15 20 27 25 26 28 18 19 19 17 12 8 10 12 11 13 3 9 10 11 15 13 14 28 29 30
9 10 11 12 12 11 24 26 27 16 14 15 15 16 16 16 15 17 17 17 18 18 18 14 17 19 18 17 13 12 11 14 12 9 9 13 7 13 10 11 28 30 32
9 10 10 11 12 13 24 26 23 14 14 15 15 15 15 16 21 25 17 16 17 17 19 30 34 36 37 34 27 13 13 12 13 11 10 10 8 7 8 11 11 30 31
10 9 11 11 13 15 22 25 21 11 13 12 13 15 21 22 26 26 17 15 17 15 15 15 16 23 27 25 33 23 16 15 12 13 10 11 9 4 4 5 10 10 14
Wind_Direction
158 158 185 175 174 157 177 174 176 178 218 292 294 287 276 268 265 281 302 304 293 286 256 239 239 237 234 227 208 212 212 127 10 6 322 14 357 64 61 67 47 36 18
170 176 171 187 194 174 180 181 183 190 214 261 295 287 276 278 273 263 263 279 288 293 276 247 238 239 234 232 222 211 183 166 178 260 305 302 39 86 111 46 1 351 0
187 178 181 180 194 172 159 153 168 161 192 202 235 256 279 281 281 273 270 277 292 311 321 268 259 248 239 243 237 201 210 172 218 159 255 260 245 324 275 41 258 238 273
182 177 178 197 183 172 170 158 172 206 255 248 261 250 255 265 273 275 287 287 292 301 318 327 328 325 260 244 235 196 186 184 212 173 257 241 212 152 210 341 273 319 243
294 213 206 201 164 160 185 155 158 180 208 238 263 279 279 273 261 262 253 264 269 273 283 288 299 302 311 291 230 222 211 210 220 233 246 248 279 313 89 250 265 268 244
5 335 333 24 134 144 135 136 168 136 164 221 235 274 282 280 283 267 260 254 239 241 252 267 279 285 291 286 275 230 240 210 194 231 237 243 247 250 240 225 236 239 252
22 23 8 4 3 191 154 128 106 191 209 126 33 315 280 239 244 241 251 259 260 250 251 251 256 262 280 278 269 250 244 221 213 235 225 230 240 236 239 240 239 245 242
24 26 22 21 27 11 9 12 116 91 279 184 145 100 319 323 292 245 221 228 246 262 263 258 261 263 265 270 270 270 255 237 219 229 228 232 233 235 239 240 238 237 231
27 27 27 24 20 20 13 356 330 282 309 282 244 204 290 252 322 331 313 270 273 264 265 268 265 260 259 261 267 269 266 262 244 223 224 229 230 236 240 241 239 236 233
28 26 24 29 29 24 17 359 347 290 235 278 308 232 238 168 298 310 318 301 259 248 243 250 252 255 251 249 257 260 267 267 267 226 212 222 228 233 236 238 235 233 229
26 22 24 26 26 22 15 12 5 351 317 289 249 302 267 239 187 228 289 302 301 253 241 234 237 242 240 233 238 251 259 266 257 207 200 206 219 227 234 237 237 234 231
16 17 15 20 22 19 13 5 1 4 349 322 304 285 251 270 260 239 264 280 267 280 258 239 234 241 238 228 232 235 244 256 242 196 190 201 211 222 228 233 235 236 234
14 8 7 10 16 9 10 4 8 9 3 351 330 314 299 277 250 255 274 284 281 282 284 247 239 239 238 218 224 221 231 239 237 209 200 207 214 223 228 230 229 228 230
358 357 2 357 5 7 9 360 4 354 356 351 335 321 307 296 286 254 262 285 291 282 266 254 246 234 237 228 227 216 223 231 232 222 217 218 225 226 226 227 229 227 223
358 356 354 353 353 356 355 356 348 343 345 330 317 305 295 285 280 276 270 249 260 286 282 271 256 241 242 228 229 214 216 224 229 230 227 224 226 229 228 226 225 224 221
348 345 343 340 338 340 340 342 341 334 334 326 312 309 301 287 289 268 256 266 249 257 277 263 267 246 256 252 244 226 225 224 222 224 229 226 224 225 227 227 226 224 219
350 350 344 341 341 340 337 329 324 313 319 312 311 292 286 279 286 282 266 243 253 254 267 281 267 242 240 238 245 224 225 224 228 224 221 222 221 224 226 227 225 225 222
336 331 329 332 330 328 328 329 324 318 311 306 299 294 294 298 278 266 262 257 246 245 257 274 278 270 230 234 229 228 230 227 230 232 226 221 219 218 220 225 225 224 222
310 310 315 314 319 318 317 315 304 302 298 293 296 291 290 289 288 287 274 275 263 256 250 259 270 267 265 226 244 236 220 230 232 231 234 230 222 219 218 220 224 223 222
322 331 328 322 319 316 311 303 298 294 292 291 291 286 285 283 281 284 277 277 278 271 265 258 263 264 256 241 235 230 243 211 233 229 234 232 229 224 219 218 220 220 219
336 330 325 322 321 318 311 316 312 303 297 291 285 281 280 280 282 282 284 283 277 272 273 271 268 264 252 223 232 230 243 232 223 212 222 230 229 225 223 222 220 215 216
331 327 323 318 317 315 316 312 308 301 300 296 294 294 293 290 286 285 283 282 276 272 270 272 271 264 266 253 234 237 239 224 252 179 213 229 213 224 221 220 219 214 213
322 319 316 316 311 309 310 312 311 302 298 295 293 294 294 292 296 294 291 284 283 283 277 277 272 268 271 259 253 235 233 234 241 200 206 235 201 227 222 223 215 214 213
314 310 309 305 301 305 310 310 308 302 299 296 293 291 291 291 289 290 287 282 279 273 271 274 273 273 270 277 253 251 249 243 248 239 196 244 189 230 222 225 222 217 212
306 300 297 306 301 299 305 306 310 303 296 295 292 290 292 290 288 288 282 278 273 273 276 276 277 276 274 271 260 261 243 241 241 234 201 233 219 225 211 220 218 220 218
294 299 299 299 293 291 296 303 310 296 292 290 288 284 283 286 290 292 291 287 286 289 290 293 279 270 270 268 267 250 250 244 236 244 210 217 214 150 230 225 208 214 220